Back to catalog

COSMOS 2237

AliveMilitaryLEO
NORAD 22565·PAYLOAD·🇷🇺 Russia

Launched Mar 26, 1993 from Baikonur Cosmodrome

Loading…

Next Passes (next 24 hours)

TLE

FreshSource: Space-Track

Epoch: Sep 14, 2026, 14:02 UTC

1 22565U 93016A   26257.58478069  .00000161  00000-0  11401-3 0  9996
2 22565  70.7622 123.6676 0005913 169.1419 190.9829 14.12388498725972

Track COSMOS 2237 in real time with AllMySat

Download on the App Store